Location: Cactus School
(34.5700°N, 118.0931°W)
Time: 05:51:39
(UTC-08:00)

Tiros 1 - Pass Details

Date: 27 November 2019
Orbit: 630 x 664 km, 48.4° (Epoch: 13 December)

Event Time Altitude Azimuth Distance (km) Brightness Sun altitude
Rises 17:13:27 0° 306° (NW) 2,918 11.0 -6.7°
Reaches altitude 10° 17:15:46 10° 305° (NW) 2,010 10.2 -7.1°
Maximum altitude 17:20:23 77° 220° (SW) 652 7.3 -8.0°
Drops below altitude 10° 17:25:01 10° 134° (SE) 2,017 9.4 -8.9°
Sets 17:27:21 0° 133° (SE) 2,928 10.2 -9.4°
